Location: Newark
(13.9174°N, 1.2431°E)
Time: 22:37:22
(UTC+00:00)

LightSail 2 - Visible Passes

Search period start: 14 October 2019 00:00
Search period end: 24 October 2019 00:00
Orbit: 707 x 723 km, 24.0° (Epoch: 13 October)

Date Brightness Start Highest point End Pass type
(mag) Time Alt. Az. Time Alt. Az. Time Alt. Az.
14 Oct 6.5 18:01:56 10° WNW 18:06:27 29° N 18:10:59 10° NE visible
14 Oct 7.2 19:48:19 10° NW 19:50:28 20° NW 19:50:28 20° NW visible
15 Oct 6.5 18:50:38 10° NW 18:54:57 26° N 18:56:27 23° NNE visible
16 Oct 6.6 17:52:53 10° WNW 17:57:12 26° N 18:01:32 10° NE visible
16 Oct 6.9 19:38:50 10° NW 19:41:27 24° NNW 19:41:27 24° NNW visible
17 Oct 6.4 18:41:16 10° NW 18:45:41 28° N 18:47:27 23° NE visible
18 Oct 6.4 19:29:10 10° NW 19:32:30 32° NNW 19:32:30 32° NNW visible
19 Oct 6.1 18:31:39 10° NW 18:36:21 34° N 18:38:34 24° NE visible
19 Oct 7.9 20:16:59 10° WNW 20:17:34 13° WNW 20:17:34 13° WNW visible
20 Oct 5.6 19:19:26 10° WNW 19:23:41 52° NNW 19:23:41 52° NNW visible
21 Oct 5.6 18:21:55 10° WNW 18:26:53 47° NNE 18:29:51 22° E visible
21 Oct 7.6 20:07:24 10° WNW 20:08:52 19° W 20:08:52 19° W visible
22 Oct 5.0 19:09:44 10° WNW 19:14:55 85° SSW 19:15:07 82° SSE visible
23 Oct 5.1 18:12:08 10° WNW 18:17:18 72° NNE 18:21:25 16° ESE visible
23 Oct 7.3 19:58:05 10° W 20:00:27 23° WSW 20:00:27 23° WSW visible
